573  
ASUS41 KBOX 210110  
RWRBOX  
 
REGIONAL WEATHER ROUNDUP  
NATIONAL WEATHER SERVICE BOSTON/NORTON MA  
800 PM EST THU FEB 20 2020  
 
NOTE: "FAIR" INDICATES FEW OR NO CLOUDS BELOW 12,000 FEET WITH NO  
SIGNIFICANT WEATHER AND/OR S TO VISIBILITY
.  
 
MAZALL-210200-  
EASTERN MASSACHUSETTS  
 
CITY SKY/WX TMP DP RH WIND PRES REMARKS
 
BOSTON FAIR 32 7 35 W10 30.40R WCI 24  
BEVERLY FAIR 27 8 44 W7 30.38R WCI 19  
LAWRENCE MOCLDY 27 7 42 NW7 30.41R WCI 19  
BEDFORD FAIR 26 4 38 W8 30.39R WCI 18  
BLUE HILL N/A 23 9 55 W9 30.35R WCI 13  
NORWOOD FAIR 29 6 38 W9 30.40R WCI 20  
MARSHFIELD FAIR 28 9 43 NW6 30.39S WCI 22  
PLYMOUTH FAIR 26 8 46 NW6 30.38S WCI 19  
TAUNTON FAIR 27 7 42 NW5 30.40R WCI 22  
NEW BEDFORD FAIR 27 7 42 VRB7 30.39R WCI 19  

 
 
MAZALL-210200-  
CAPE COD AND THE ISLANDS  
 
CITY SKY/WX TMP DP RH WIND PRES REMARKS
 
FALMOUTH NOT AVBL  
HYANNIS FAIR 28 14 55 W5 30.37R WCI 23  
CHATHAM FAIR 26 14 60 CALM 30.39R  
PROVINCETOWN MOCLDY 30 11 45 W17 30.38S WCI 18  
NANTUCKET FAIR 30 16 56 W10 30.38S WCI 21  
MARTHAS VNYRD FAIR 28 10 46 N8 30.38R WCI 20  

 
 
MAZALL-210200-  
CENTRAL AND WESTERN MASSACHUSETTS  
 
CITY SKY/WX TMP DP RH WIND PRES REMARKS
 
WORCESTER FAIR 21 3 45 W9 30.35R WCI 11  
FITCHBURG FAIR 23 7 50 NW9 30.40R WCI 13  
ORANGE FAIR 23 4 44 W10 30.40R WCI 12  
SPRINGFIELD PTCLDY 23 3 41 NW10 30.42R WCI 13  
WESTFIELD FAIR 23 3 42 N14G26 30.42R WCI 11  
NORTH ADAMS FAIR 18 2 49 W10 30.41R WCI 6  
PITTSFIELD FAIR 18 2 49 NW9 30.36R WCI 7  

 
 
RIZALL-210200-  
RHODE ISLAND  
 
CITY SKY/WX TMP DP RH WIND PRES REMARKS
 
PROVIDENCE FAIR 28 8 43 N7 30.41R WCI 21  
NEWPORT FAIR 29 9 43 N9 30.39R WCI 20  
BLOCK ISLAND CLOUDY 31 13 47 N9 30.39S WCI 23  
SMITHFIELD FAIR 24 8 50 NW5 30.38R WCI 18  
WESTERLY FAIR 31 8 38 N7 30.41R WCI 24  

 
 
CTZALL-210200-  
CONNECTICUT  
 
CITY SKY/WX TMP DP RH WIND PRES REMARKS
 
BRADLEY INTL FAIR 25 5 42 NW16 30.43R WCI 12  
HARTFORD FAIR 27 6 41 N12 30.44R WCI 17  
BRIDGEPORT CLOUDY 31 10 41 N10 30.42R WCI 22  
DANBURY FAIR 26 10 50 N9 30.42R WCI 17  
GROTON FAIR 28 9 44 N8 30.40R WCI 20  
NEW HAVEN CLOUDY 30 11 45 N12 30.41R WCI 20  
CHESTER NOT AVBL  
MERIDEN FAIR 27 9 46 VRB6 30.43R WCI 20  
WILLIMANTIC FAIR 26 7 44 NW9 30.42R WCI 17  
OXFORD FAIR 23 12 62 N10 30.39R WCI 12  

 
 
MEZ002-015-021-024-NHZ003-005-008-011-012-014-VTZ005-008-210200-  
NORTHERN NEW ENGLAND  
 
CITY SKY/WX TMP DP RH WIND PRES REMARKS
 
PORTLAND ME FAIR 20 -1 40 N7 30.41R WCI 11  
BANGOR ME FAIR 12 -9 38 NW7 30.39R WCI 1  
CONCORD NH FAIR 19 3 49 N6 30.40R WCI 11  
MANCHESTER NH FAIR 25 4 40 NW7 30.38R WCI 17  
NASHUA NH FAIR 24 8 50 NW5 30.40R WCI 18  
PORTSMOUTH NH PTCLDY 22 3 45 NW10 30.39R WCI 11  
JAFFREY NH FAIR 19 5 54 VRB5 30.34R WCI 12  
KEENE NH MOCLDY 21 8 57 S5 30.40R WCI 15  
BURLINGTON VT FAIR 10 -4 53 NE6 30.47R WCI 0  
MT. WASHINGTON ICE FOG -15 -15 100 W61 N/A VSB 1/8 WCI -55  

 
 
NYZ052-076-210200-  
EASTERN NEW YORK  
 
CITY SKY/WX TMP DP RH WIND PRES REMARKS
 
ALBANY MOCLDY 23 4 44 NW8 30.47R WCI 14  
NEW YORK CITY MOCLDY 33 11 39 NW17 30.42R WCI 22  

 
 
ANZALL-210200-  
MARINE OBSERVATIONS  
 
STATION/POSITION TIME TEMP WIND PRES VSBY WAVE
 
AIR SEA DIR/SP/G HT/PER  
(UTC) (F) (DEG/KT/KT) (MB) (MI) (FT/S)  
BOSTON BUOY 0050 31 41 300/ 16/ 19 1028.4R 2/ 3  
BUZZARDS BAY 0000 320/ 13/ 15 1029.3R  
NANTUCKET SOUND 0040 N/A 1/ 2  
MASS BAY-STELLWA 0004 31 40 330/ 14/ 16 1026.7R 1 7/8 2/ 4  
ISLE OF SHOALS 0000 26 340/ 16/ 19 1028.5R  
S OF BLOCK IS 0100 44 N/A 2/ 9  

 
   
.....................KEY......................
 
 
SKY/WX - SKY CONDITION/PRESENT WEATHER  
TMP - TEMPERATURE IN FAHRENHEIT  
DWPT - DEWPOINT IN FAHRENHEIT  
RH - RELATIVE HUMIDITY IN PERCENT  
WIND - DIRECTION AND SPEED IN MPH  
PRES - MEAN SEA LEVEL PRESSURE IN INCHES OF HG  
WCI - WIND CHILL INDEX  
VSB - VISIBILITY IN MILES  
HX - HEAT INDEX  
TC - TEMPERATURE IN CELSIUS  
VRB - VARIABLE WIND DIRECTION  
N/A - NOT AVAILABLE  
 
 
CLICK HERE TO GO TO PREVIOUS BULLETINS.

The Nexlab MA Page
The Nexlab RI Page
The Nexlab NH Page
The Nexlab CT Page Main Text Page